KLM1754 EDDH-EHAM

Flight info

Callsign KLM1754
Flight time 0h 44m
Altitude 28000
Route WSN5G/33 WSN N125 BLUFA
Aircraft A21N/M-SDE2E3FGHIJ1RWXY/LB1

Departure

Time 2026-05-07 09:37
Airport Hamburg Helmut Schmidt Airport (EDDH)

Arrival

Time 2026-05-07 10:21
Airport Amsterdam Airport Schiphol (EHAM)
Time Latitude Longitude Altitude Speed Heading
2026-05-07 09:14 53.63206 10.00361 54 ft 0 kts 86°
2026-05-07 09:30 53.63204 10.00329 54 ft 4 kts 86°
2026-05-07 09:31 53.63204 10.00293 54 ft 4 kts 99°
2026-05-07 09:31 53.63214 10.00256 50 ft 4 kts 142°
2026-05-07 09:31 53.63229 10.00245 54 ft 0 kts 176°
2026-05-07 09:34 53.63226 10.00245 52 ft 1 kts 176°
2026-05-07 09:34 53.63201 10.00248 52 ft 6 kts 176°
2026-05-07 09:34 53.63148 10.00254 51 ft 9 kts 176°
2026-05-07 09:34 53.63078 10.00259 54 ft 11 kts 189°
2026-05-07 09:35 53.63002 10.00190 54 ft 14 kts 212°
2026-05-07 09:35 53.62915 10.00097 54 ft 15 kts 212°
2026-05-07 09:35 53.62843 9.99956 53 ft 14 kts 244°
2026-05-07 09:35 53.62808 9.99833 51 ft 7 kts 245°
2026-05-07 09:36 53.62842 9.99767 51 ft 9 kts 333°
2026-05-07 09:36 53.62983 9.99647 51 ft 54 kts 333°
2026-05-07 09:36 53.63532 9.99172 53 ft 121 kts 333°
2026-05-07 09:36 53.64447 9.98377 97 ft 167 kts 337°
2026-05-07 09:37 53.65480 9.97464 669 ft 169 kts 336°
2026-05-07 09:37 53.66523 9.96571 1379 ft 171 kts 337°
2026-05-07 09:37 53.67595 9.95676 2128 ft 172 kts 337°
2026-05-07 09:37 53.68686 9.94748 2975 ft 180 kts 338°
2026-05-07 09:38 53.69844 9.93760 3721 ft 195 kts 336°
2026-05-07 09:38 53.70904 9.92199 4483 ft 214 kts 308°
2026-05-07 09:38 53.71440 9.89715 5099 ft 242 kts 274°
2026-05-07 09:38 53.71166 9.86796 5708 ft 265 kts 251°
2026-05-07 09:39 53.70319 9.83926 6471 ft 280 kts 238°
2026-05-07 09:39 53.69297 9.81153 7382 ft 285 kts 238°
2026-05-07 09:39 53.68236 9.78292 8320 ft 291 kts 238°
2026-05-07 09:39 53.67178 9.75428 9314 ft 286 kts 238°
2026-05-07 09:40 53.66122 9.72546 10264 ft 293 kts 239°
2026-05-07 09:40 53.65019 9.69519 10804 ft 313 kts 239°
2026-05-07 09:40 53.63838 9.66281 11282 ft 333 kts 239°
2026-05-07 09:40 53.62597 9.62873 11823 ft 349 kts 239°
2026-05-07 09:41 53.61310 9.59352 12584 ft 356 kts 239°
2026-05-07 09:41 53.59998 9.55786 13452 ft 360 kts 239°
2026-05-07 09:41 53.58690 9.52233 14240 ft 364 kts 239°
2026-05-07 09:41 53.57352 9.48594 15035 ft 367 kts 239°
2026-05-07 09:42 53.56008 9.44935 15838 ft 368 kts 239°
2026-05-07 09:42 53.54658 9.41262 16637 ft 370 kts 239°
2026-05-07 09:42 53.53305 9.37572 17438 ft 371 kts 239°
2026-05-07 09:42 53.51945 9.33879 18261 ft 373 kts 238°
2026-05-07 09:43 53.50571 9.30152 18829 ft 378 kts 238°
2026-05-07 09:43 53.49178 9.26368 19361 ft 383 kts 238°
2026-05-07 09:43 53.47768 9.22550 19908 ft 387 kts 238°
2026-05-07 09:43 53.46360 9.18747 20488 ft 390 kts 238°
2026-05-07 09:44 53.45070 9.14744 21044 ft 392 kts 248°
2026-05-07 09:44 53.44150 9.10429 21670 ft 394 kts 251°
2026-05-07 09:44 53.43246 9.06090 22294 ft 396 kts 246°
2026-05-07 09:44 53.41804 9.02153 22809 ft 400 kts 233°
2026-05-07 09:45 53.40046 8.98507 23391 ft 403 kts 231°
2026-05-07 09:45 53.38262 8.94871 23883 ft 407 kts 231°
2026-05-07 09:45 53.36466 8.91181 24317 ft 411 kts 231°
2026-05-07 09:45 53.34824 8.87321 24748 ft 414 kts 240°
2026-05-07 09:46 53.33628 8.82938 25243 ft 415 kts 249°
2026-05-07 09:46 53.32630 8.78392 25774 ft 417 kts 250°
2026-05-07 09:46 53.31644 8.73809 26153 ft 421 kts 250°
2026-05-07 09:46 53.30639 8.69193 26562 ft 425 kts 250°
2026-05-07 09:47 53.29619 8.64563 27225 ft 421 kts 250°
2026-05-07 09:47 53.28617 8.59981 27801 ft 419 kts 250°
2026-05-07 09:47 53.27620 8.55416 28037 ft 419 kts 250°
2026-05-07 09:48 53.25715 8.46270 28078 ft 420 kts 252°
2026-05-07 09:48 53.23976 8.36971 28063 ft 420 kts 253°
2026-05-07 09:49 53.22229 8.27670 28061 ft 420 kts 252°
2026-05-07 09:49 53.20466 8.18373 28062 ft 420 kts 252°
2026-05-07 09:50 53.18702 8.09094 28059 ft 420 kts 253°
2026-05-07 09:50 53.16969 7.99873 28060 ft 420 kts 253°
2026-05-07 09:51 53.15208 7.90588 28060 ft 423 kts 252°
2026-05-07 09:51 53.13423 7.81211 28061 ft 426 kts 252°
2026-05-07 09:52 53.11629 7.71821 28057 ft 426 kts 252°
2026-05-07 09:52 53.09898 7.64231 28057 ft 421 kts 246°
2026-05-07 09:53 53.07039 7.53975 28060 ft 420 kts 246°
2026-05-07 09:53 53.04637 7.45205 28060 ft 420 kts 246°
2026-05-07 09:54 53.02227 7.36367 28052 ft 417 kts 246°
2026-05-07 09:54 53.01034 7.32016 27743 ft 415 kts 246°
2026-05-07 09:54 52.99832 7.27656 27466 ft 416 kts 246°
2026-05-07 09:54 52.99034 7.24762 27283 ft 415 kts 246°
2026-05-07 09:55 52.97437 7.18966 26924 ft 411 kts 246°
2026-05-07 09:55 52.96258 7.14707 26664 ft 411 kts 246°
2026-05-07 09:55 52.95066 7.10416 26407 ft 409 kts 245°
2026-05-07 09:55 52.93876 7.06138 26149 ft 408 kts 245°
2026-05-07 09:56 52.92690 7.01884 25905 ft 407 kts 245°
2026-05-07 09:56 52.91503 6.97636 25646 ft 405 kts 245°
2026-05-07 09:56 52.90324 6.93422 25403 ft 404 kts 245°
2026-05-07 09:56 52.89142 6.89198 25150 ft 403 kts 245°
2026-05-07 09:57 52.88366 6.86416 24988 ft 401 kts 245°
2026-05-07 09:57 52.87202 6.82224 24744 ft 401 kts 245°
2026-05-07 09:57 52.86030 6.78040 24503 ft 399 kts 245°
2026-05-07 09:57 52.84862 6.73889 24263 ft 397 kts 245°
2026-05-07 09:58 52.83697 6.69755 24025 ft 397 kts 245°
2026-05-07 09:58 52.82154 6.64310 23560 ft 393 kts 245°
2026-05-07 09:58 52.81372 6.61549 23157 ft 391 kts 245°
2026-05-07 09:58 52.79852 6.56191 22370 ft 387 kts 245°
2026-05-07 09:59 52.79096 6.53530 21951 ft 386 kts 245°
2026-05-07 09:59 52.77973 6.49577 21364 ft 385 kts 245°
2026-05-07 09:59 52.76823 6.45527 20778 ft 383 kts 245°
2026-05-07 09:59 52.75696 6.41564 20215 ft 380 kts 245°
2026-05-07 10:00 52.74576 6.37624 19688 ft 378 kts 245°
2026-05-07 10:00 52.73462 6.33719 19177 ft 375 kts 245°
2026-05-07 10:00 52.72351 6.29832 18691 ft 373 kts 245°
2026-05-07 10:00 52.71238 6.25973 18196 ft 372 kts 245°
2026-05-07 10:01 52.70124 6.22123 17658 ft 371 kts 245°
2026-05-07 10:01 52.69014 6.18290 17140 ft 370 kts 245°
2026-05-07 10:01 52.67907 6.14467 16634 ft 369 kts 245°
2026-05-07 10:01 52.66821 6.10711 16151 ft 368 kts 245°
2026-05-07 10:02 52.65723 6.06915 15662 ft 366 kts 245°
2026-05-07 10:02 52.64632 6.03138 15205 ft 365 kts 245°
2026-05-07 10:02 52.63548 5.99368 14744 ft 363 kts 245°
2026-05-07 10:02 52.62464 5.95629 14267 ft 360 kts 245°
2026-05-07 10:03 52.61390 5.91951 13789 ft 353 kts 245°
2026-05-07 10:03 52.60337 5.88349 13302 ft 346 kts 245°
2026-05-07 10:03 52.59305 5.84814 12848 ft 339 kts 245°
2026-05-07 10:03 52.58289 5.81331 12412 ft 337 kts 245°
2026-05-07 10:04 52.57283 5.77900 11975 ft 337 kts 245°
2026-05-07 10:04 52.56268 5.74435 11553 ft 337 kts 244°
2026-05-07 10:04 52.55252 5.70966 11134 ft 336 kts 244°
2026-05-07 10:04 52.54252 5.67562 10852 ft 326 kts 244°
2026-05-07 10:05 52.53285 5.64276 10654 ft 313 kts 244°
2026-05-07 10:05 52.52352 5.61112 10505 ft 302 kts 244°
2026-05-07 10:05 52.51453 5.58077 10373 ft 290 kts 244°
2026-05-07 10:05 52.50500 5.55206 10109 ft 285 kts 239°
2026-05-07 10:06 52.49485 5.52430 9760 ft 281 kts 239°
2026-05-07 10:06 52.48473 5.49694 9374 ft 281 kts 239°
2026-05-07 10:06 52.47472 5.46986 9009 ft 281 kts 239°
2026-05-07 10:06 52.46465 5.44258 8675 ft 279 kts 239°
2026-05-07 10:07 52.45464 5.41546 8361 ft 278 kts 239°
2026-05-07 10:07 52.44461 5.38838 8069 ft 277 kts 239°
2026-05-07 10:07 52.43462 5.36145 7766 ft 276 kts 239°
2026-05-07 10:07 52.42470 5.33463 7485 ft 275 kts 239°
2026-05-07 10:08 52.41485 5.30794 7195 ft 274 kts 239°
2026-05-07 10:08 52.40498 5.28131 6909 ft 273 kts 239°
2026-05-07 10:08 52.39515 5.25478 6632 ft 272 kts 239°
2026-05-07 10:08 52.38531 5.22831 6326 ft 272 kts 239°
2026-05-07 10:09 52.37549 5.20187 6041 ft 272 kts 239°
2026-05-07 10:09 52.36601 5.17637 5755 ft 272 kts 239°
2026-05-07 10:09 52.35616 5.14999 5474 ft 272 kts 239°
2026-05-07 10:09 52.34629 5.12359 5194 ft 272 kts 239°
2026-05-07 10:10 52.33610 5.09751 4901 ft 272 kts 238°
2026-05-07 10:10 52.32570 5.07181 4635 ft 272 kts 237°
2026-05-07 10:10 52.31523 5.04606 4421 ft 272 kts 238°
2026-05-07 10:10 52.30476 5.02033 4137 ft 273 kts 237°
2026-05-07 10:11 52.29431 4.99465 3863 ft 270 kts 237°
2026-05-07 10:11 52.28393 4.96917 3648 ft 269 kts 237°
2026-05-07 10:11 52.27357 4.94367 3377 ft 269 kts 237°
2026-05-07 10:11 52.26327 4.91831 3074 ft 266 kts 237°
2026-05-07 10:12 52.25304 4.89325 2807 ft 265 kts 237°
2026-05-07 10:12 52.24284 4.86819 2545 ft 264 kts 237°
2026-05-07 10:12 52.23278 4.84346 2295 ft 259 kts 237°
2026-05-07 10:12 52.22304 4.81962 2086 ft 253 kts 237°
2026-05-07 10:13 52.21343 4.79618 1975 ft 242 kts 237°
2026-05-07 10:13 52.20440 4.77417 1963 ft 226 kts 237°
2026-05-07 10:13 52.19586 4.75346 1983 ft 214 kts 237°
2026-05-07 10:13 52.18758 4.73354 1986 ft 211 kts 237°
2026-05-07 10:14 52.17940 4.71371 2033 ft 208 kts 237°
2026-05-07 10:14 52.17156 4.69468 1998 ft 195 kts 237°
2026-05-07 10:14 52.16409 4.67659 2001 ft 191 kts 237°
2026-05-07 10:14 52.15676 4.65886 2048 ft 192 kts 237°
2026-05-07 10:15 52.14930 4.64075 2065 ft 193 kts 237°
2026-05-07 10:15 52.14414 4.62104 2030 ft 188 kts 266°
2026-05-07 10:15 52.14667 4.60089 1997 ft 183 kts 301°
2026-05-07 10:15 52.15530 4.58618 2005 ft 179 kts 322°
2026-05-07 10:16 52.16491 4.57323 2010 ft 180 kts 322°
2026-05-07 10:16 52.17451 4.56025 2016 ft 179 kts 322°
2026-05-07 10:16 52.18381 4.54761 2004 ft 169 kts 322°
2026-05-07 10:16 52.19409 4.53940 1987 ft 166 kts 354°
2026-05-07 10:17 52.20517 4.54354 1997 ft 166 kts 28°
2026-05-07 10:17 52.21478 4.55339 2032 ft 166 kts 34°
2026-05-07 10:17 52.22290 4.56663 2060 ft 163 kts 50°
2026-05-07 10:17 52.22928 4.58170 2013 ft 158 kts 56°
2026-05-07 10:18 52.23511 4.59690 1993 ft 157 kts 56°
2026-05-07 10:18 52.24071 4.61144 1883 ft 145 kts 56°
2026-05-07 10:18 52.24559 4.62414 1644 ft 126 kts 55°
2026-05-07 10:18 52.25023 4.63618 1541 ft 125 kts 55°
2026-05-07 10:19 52.25487 4.64823 1357 ft 126 kts 55°
2026-05-07 10:19 52.25952 4.66032 1225 ft 124 kts 55°
2026-05-07 10:19 52.26417 4.67241 1036 ft 126 kts 55°
2026-05-07 10:19 52.26879 4.68444 853 ft 126 kts 56°
2026-05-07 10:20 52.27326 4.69615 688 ft 124 kts 56°
2026-05-07 10:20 52.27788 4.70839 485 ft 125 kts 55°
2026-05-07 10:20 52.28244 4.72017 308 ft 124 kts 53°
2026-05-07 10:20 52.28713 4.73209 101 ft 125 kts 54°
2026-05-07 10:21 52.29175 4.74404 12 ft 120 kts 57°
2026-05-07 10:21 52.29552 4.75414 3 ft 81 kts 61°
2026-05-07 10:21 52.29790 4.76014 2 ft 54 kts 58°
2026-05-07 10:21 52.29951 4.76432 2 ft 22 kts 57°
2026-05-07 10:22 52.30064 4.76562 4 ft 20 kts 27°
2026-05-07 10:22 52.30172 4.76665 4 ft 11 kts 24°
2026-05-07 10:22 52.30186 4.76675 4 ft 0 kts 25°
2026-05-07 10:23 52.30188 4.76677 4 ft 2 kts 23°
2026-05-07 10:23 52.30199 4.76685 4 ft 3 kts 26°
2026-05-07 10:24 52.30235 4.76713 4 ft 7 kts 22°
2026-05-07 10:24 52.30290 4.76740 4 ft 10 kts
2026-05-07 10:24 52.30344 4.76675 4 ft 12 kts 284°
2026-05-07 10:24 52.30392 4.76555 4 ft 14 kts 330°
2026-05-07 10:25 52.30432 4.76516 4 ft 5 kts 337°
2026-05-07 10:25 52.30455 4.76543 4 ft 0 kts 63°
2026-05-07 10:25 52.30462 4.76559 4 ft 3 kts 52°
2026-05-07 10:25 52.30467 4.76569 4 ft 0 kts 58°